Year,Month,Day,Hour,Minute,Value (Times are PST for temperature in C)
2010,03,23,00,00,5.10
2010,03,23,00,01,5.10
2010,03,23,00,02,5.10
2010,03,23,00,03,5.10
2010,03,23,00,04,5.10
2010,03,23,00,05,4.90
2010,03,23,00,06,4.90
2010,03,23,00,07,4.90
2010,03,23,00,08,4.90
2010,03,23,00,09,4.90
2010,03,23,00,10,4.90
2010,03,23,00,11,4.90
2010,03,23,00,12,4.90
2010,03,23,00,13,4.90
2010,03,23,00,14,4.90
2010,03,23,00,15,4.90
2010,03,23,00,16,4.90
2010,03,23,00,17,4.90
2010,03,23,00,18,4.80
2010,03,23,00,19,4.80
2010,03,23,00,20,4.80
2010,03,23,00,21,4.70
2010,03,23,00,22,4.70
2010,03,23,00,23,4.70
2010,03,23,00,24,4.70
2010,03,23,00,25,4.70
2010,03,23,00,26,4.70
2010,03,23,00,27,4.70
2010,03,23,00,28,4.70
2010,03,23,00,29,4.70
2010,03,23,00,30,4.70
2010,03,23,00,31,4.70
2010,03,23,00,32,4.70
2010,03,23,00,33,4.70
2010,03,23,00,34,4.70
2010,03,23,00,35,4.70
2010,03,23,00,36,4.70
2010,03,23,00,37,4.70
2010,03,23,00,38,4.60
2010,03,23,00,39,4.60
2010,03,23,00,40,4.60
2010,03,23,00,41,4.60
2010,03,23,00,42,4.60
2010,03,23,00,43,4.60
2010,03,23,00,44,4.60
2010,03,23,00,45,4.60
2010,03,23,00,46,4.60
2010,03,23,00,47,4.60
2010,03,23,00,48,4.60
2010,03,23,00,49,4.60
2010,03,23,00,50,4.60
2010,03,23,00,51,4.60
2010,03,23,00,52,4.60
2010,03,23,00,53,4.60
2010,03,23,00,54,4.70
2010,03,23,00,55,4.70
2010,03,23,00,56,4.70
2010,03,23,00,57,4.70
2010,03,23,00,58,4.70
2010,03,23,00,59,4.70
2010,03,23,01,00,4.70
2010,03,23,01,01,4.70
2010,03,23,01,02,4.60
2010,03,23,01,03,4.50
2010,03,23,01,04,4.50
2010,03,23,01,05,4.40
2010,03,23,01,06,4.40
2010,03,23,01,07,4.40
2010,03,23,01,08,4.40
2010,03,23,01,09,4.40
2010,03,23,01,10,4.40
2010,03,23,01,11,4.40
2010,03,23,01,12,4.40
2010,03,23,01,13,4.40
2010,03,23,01,14,4.40
2010,03,23,01,15,4.40
2010,03,23,01,16,4.30
2010,03,23,01,17,4.30
2010,03,23,01,18,4.30
2010,03,23,01,19,4.30
2010,03,23,01,20,4.30
2010,03,23,01,21,4.30
2010,03,23,01,22,4.20
2010,03,23,01,23,4.20
2010,03,23,01,24,4.20
2010,03,23,01,25,4.20
2010,03,23,01,26,4.20
2010,03,23,01,27,4.20
2010,03,23,01,28,4.20
2010,03,23,01,29,4.10
2010,03,23,01,30,4.10
2010,03,23,01,31,4.10
2010,03,23,01,32,4.10
2010,03,23,01,33,4.10
2010,03,23,01,34,4.10
2010,03,23,01,35,4.10
2010,03,23,01,36,4.10
2010,03,23,01,37,4.10
2010,03,23,01,38,4.10
2010,03,23,01,39,4.00
2010,03,23,01,40,4.00
2010,03,23,01,41,4.00
2010,03,23,01,42,4.00
2010,03,23,01,43,4.00
2010,03,23,01,44,4.00
2010,03,23,01,45,4.00
2010,03,23,01,46,4.00
2010,03,23,01,47,4.00
2010,03,23,01,48,4.00
2010,03,23,01,49,4.00
2010,03,23,01,50,4.00
2010,03,23,01,51,4.00
2010,03,23,01,52,3.90
2010,03,23,01,53,3.90
2010,03,23,01,54,3.90
2010,03,23,01,55,3.90
2010,03,23,01,56,3.80
2010,03,23,01,57,3.80
2010,03,23,01,58,3.80
2010,03,23,01,59,3.80
2010,03,23,02,00,3.80
2010,03,23,02,01,3.70
2010,03,23,02,02,3.70
2010,03,23,02,03,3.70
2010,03,23,02,04,3.70
2010,03,23,02,05,3.60
2010,03,23,02,06,3.60
2010,03,23,02,07,3.60
2010,03,23,02,08,3.60
2010,03,23,02,09,3.60
2010,03,23,02,10,3.60
2010,03,23,02,11,3.60
2010,03,23,02,12,3.60
2010,03,23,02,13,3.60
2010,03,23,02,14,3.60
2010,03,23,02,15,3.60
2010,03,23,02,16,3.70
2010,03,23,02,17,3.70
2010,03,23,02,18,3.80
2010,03,23,02,19,3.80
2010,03,23,02,20,3.80
2010,03,23,02,21,3.90
2010,03,23,02,22,4.00
2010,03,23,02,23,4.00
2010,03,23,02,24,4.00
2010,03,23,02,25,4.10
2010,03,23,02,26,4.10
2010,03,23,02,27,4.00
2010,03,23,02,28,4.00
2010,03,23,02,29,4.00
2010,03,23,02,30,4.00
2010,03,23,02,31,4.00
2010,03,23,02,32,4.00
2010,03,23,02,33,4.00
2010,03,23,02,34,4.00
2010,03,23,02,35,4.00
2010,03,23,02,36,4.00
2010,03,23,02,37,4.00
2010,03,23,02,38,4.00
2010,03,23,02,39,4.00
2010,03,23,02,40,4.00
2010,03,23,02,41,3.90
2010,03,23,02,42,3.90
2010,03,23,02,43,3.90
2010,03,23,02,44,3.80
2010,03,23,02,45,3.90
2010,03,23,02,46,3.90
2010,03,23,02,47,4.00
2010,03,23,02,48,4.00
2010,03,23,02,49,4.10
2010,03,23,02,50,4.10
2010,03,23,02,51,4.20
2010,03,23,02,52,4.20
2010,03,23,02,53,4.20
2010,03,23,02,54,4.20
2010,03,23,02,55,4.10
2010,03,23,02,56,4.10
2010,03,23,02,57,4.10
2010,03,23,02,58,4.10
2010,03,23,02,59,4.00
2010,03,23,03,00,4.00
2010,03,23,03,01,4.00
2010,03,23,03,02,4.00
2010,03,23,03,03,4.00
2010,03,23,03,04,4.00
2010,03,23,03,05,4.00
2010,03,23,03,06,4.00
2010,03,23,03,07,4.00
2010,03,23,03,08,4.00
2010,03,23,03,09,4.00
2010,03,23,03,10,4.10
2010,03,23,03,11,4.10
2010,03,23,03,12,4.10
2010,03,23,03,13,4.10
2010,03,23,03,14,4.00
2010,03,23,03,15,3.90
2010,03,23,03,16,3.80
2010,03,23,03,17,3.70
2010,03,23,03,18,3.70
2010,03,23,03,19,3.80
2010,03,23,03,20,3.80
2010,03,23,03,21,3.80
2010,03,23,03,22,3.90
2010,03,23,03,23,4.00
2010,03,23,03,24,4.00
2010,03,23,03,25,4.00
2010,03,23,03,26,4.00
2010,03,23,03,27,4.00
2010,03,23,03,28,4.00
2010,03,23,03,29,4.00
2010,03,23,03,30,3.90
2010,03,23,03,31,3.80
2010,03,23,03,32,3.80
2010,03,23,03,33,3.80
2010,03,23,03,34,3.80
2010,03,23,03,35,3.70
2010,03,23,03,36,3.70
2010,03,23,03,37,3.70
2010,03,23,03,38,3.60
2010,03,23,03,39,3.60
2010,03,23,03,40,3.60
2010,03,23,03,41,3.70
2010,03,23,03,42,3.70
2010,03,23,03,43,3.80
2010,03,23,03,44,3.80
2010,03,23,03,45,3.80
2010,03,23,03,46,3.80
2010,03,23,03,47,3.80
2010,03,23,03,48,3.80
2010,03,23,03,49,3.80
2010,03,23,03,50,3.80
2010,03,23,03,51,3.80
2010,03,23,03,52,3.80
2010,03,23,03,53,3.80
2010,03,23,03,54,3.70
2010,03,23,03,55,3.70
2010,03,23,03,56,3.70
2010,03,23,03,57,3.70
2010,03,23,03,58,3.60
2010,03,23,03,59,3.60
2010,03,23,04,00,3.50
2010,03,23,04,01,3.50
2010,03,23,04,02,3.40
2010,03,23,04,03,3.40
2010,03,23,04,04,3.40
2010,03,23,04,05,3.30
2010,03,23,04,06,3.30
2010,03,23,04,07,3.30
2010,03,23,04,08,3.30
2010,03,23,04,09,3.30
2010,03,23,04,10,3.20
2010,03,23,04,11,3.20
2010,03,23,04,12,3.20
2010,03,23,04,13,3.30
2010,03,23,04,14,3.30
2010,03,23,04,15,3.30
2010,03,23,04,16,3.30
2010,03,23,04,17,3.30
2010,03,23,04,18,3.30
2010,03,23,04,19,3.30
2010,03,23,04,20,3.40
2010,03,23,04,21,3.40
2010,03,23,04,22,3.40
2010,03,23,04,23,3.40
2010,03,23,04,24,3.40
2010,03,23,04,25,3.40
2010,03,23,04,26,3.40
2010,03,23,04,27,3.40
2010,03,23,04,28,3.40
2010,03,23,04,29,3.40
2010,03,23,04,30,3.30
2010,03,23,04,31,3.30
2010,03,23,04,32,3.30
2010,03,23,04,33,3.30
2010,03,23,04,34,3.30
2010,03,23,04,35,3.40
2010,03,23,04,36,3.40
2010,03,23,04,37,3.40
2010,03,23,04,38,3.50
2010,03,23,04,39,3.50
2010,03,23,04,40,3.50
2010,03,23,04,41,3.60
2010,03,23,04,42,3.60
2010,03,23,04,43,3.70
2010,03,23,04,44,3.70
2010,03,23,04,45,3.70
2010,03,23,04,46,3.70
2010,03,23,04,47,3.70
2010,03,23,04,48,3.70
2010,03,23,04,49,3.70
2010,03,23,04,50,3.70
2010,03,23,04,51,3.70
2010,03,23,04,52,3.70
2010,03,23,04,53,3.60
2010,03,23,04,54,3.60
2010,03,23,04,55,3.50
2010,03,23,04,56,3.40
2010,03,23,04,57,3.30
2010,03,23,04,58,3.10
2010,03,23,04,59,3.00
2010,03,23,05,00,2.90
2010,03,23,05,01,2.80
2010,03,23,05,02,2.80
2010,03,23,05,03,2.70
2010,03,23,05,04,2.70
2010,03,23,05,05,2.70
2010,03,23,05,06,2.70
2010,03,23,05,07,2.70
2010,03,23,05,08,2.70
2010,03,23,05,09,2.70
2010,03,23,05,10,2.70
2010,03,23,05,11,2.70
2010,03,23,05,12,2.70
2010,03,23,05,13,2.70
2010,03,23,05,14,2.70
2010,03,23,05,15,2.70
2010,03,23,05,16,2.70
2010,03,23,05,17,2.70
2010,03,23,05,18,2.70
2010,03,23,05,19,2.70
2010,03,23,05,20,2.70
2010,03,23,05,21,2.70
2010,03,23,05,22,2.60
2010,03,23,05,23,2.60
2010,03,23,05,24,2.50
2010,03,23,05,25,2.50
2010,03,23,05,26,2.40
2010,03,23,05,27,2.40
2010,03,23,05,28,2.40
2010,03,23,05,29,2.50
2010,03,23,05,30,2.50
2010,03,23,05,31,2.50
2010,03,23,05,32,2.60
2010,03,23,05,33,2.60
2010,03,23,05,34,2.60
2010,03,23,05,35,2.50
2010,03,23,05,36,2.50
2010,03,23,05,37,2.50
2010,03,23,05,38,2.40
2010,03,23,05,39,2.40
2010,03,23,05,40,2.30
2010,03,23,05,41,2.30
2010,03,23,05,42,2.30
2010,03,23,05,43,2.30
2010,03,23,05,44,2.30
2010,03,23,05,45,2.20
2010,03,23,05,46,2.20
2010,03,23,05,47,2.20
2010,03,23,05,48,2.20
2010,03,23,05,49,2.20
2010,03,23,05,50,2.20
2010,03,23,05,51,2.20
2010,03,23,05,52,2.20
2010,03,23,05,53,2.30
2010,03,23,05,54,2.30
2010,03,23,05,55,2.30
2010,03,23,05,56,2.30
2010,03,23,05,57,2.30
2010,03,23,05,58,2.30
2010,03,23,05,59,2.30
2010,03,23,06,00,2.30
2010,03,23,06,01,2.20
2010,03,23,06,02,2.20
2010,03,23,06,03,2.20
2010,03,23,06,04,2.20
2010,03,23,06,05,2.20
2010,03,23,06,06,2.20
2010,03,23,06,07,2.20
2010,03,23,06,08,2.20
2010,03,23,06,09,2.20
2010,03,23,06,10,2.10
2010,03,23,06,11,2.00
2010,03,23,06,12,2.00
2010,03,23,06,13,2.00
2010,03,23,06,14,1.90
2010,03,23,06,15,1.90
2010,03,23,06,16,1.90
2010,03,23,06,17,1.90
2010,03,23,06,18,1.90
2010,03,23,06,19,1.90
2010,03,23,06,20,1.90
2010,03,23,06,21,1.90
2010,03,23,06,22,1.90
2010,03,23,06,23,1.90
2010,03,23,06,24,1.90
2010,03,23,06,25,1.90
2010,03,23,06,26,1.90
2010,03,23,06,27,1.90
2010,03,23,06,28,1.90
2010,03,23,06,29,1.90
2010,03,23,06,30,2.00
2010,03,23,06,31,2.00
2010,03,23,06,32,2.00
2010,03,23,06,33,1.90
2010,03,23,06,34,1.90
2010,03,23,06,35,2.00
2010,03,23,06,36,2.00
2010,03,23,06,37,2.00
2010,03,23,06,38,2.00
2010,03,23,06,39,2.00
2010,03,23,06,40,2.10
2010,03,23,06,41,2.10
2010,03,23,06,42,2.10
2010,03,23,06,43,2.10
2010,03,23,06,44,2.10
2010,03,23,06,45,2.10
2010,03,23,06,46,2.10
2010,03,23,06,47,2.10
2010,03,23,06,48,2.10
2010,03,23,06,49,2.10
2010,03,23,06,50,2.10
2010,03,23,06,51,2.10
2010,03,23,06,52,2.10
2010,03,23,06,53,2.10
2010,03,23,06,54,2.10
2010,03,23,06,55,2.10
2010,03,23,06,56,2.00
2010,03,23,06,57,1.90
2010,03,23,06,58,1.90
2010,03,23,06,59,1.80
2010,03,23,07,00,1.80
2010,03,23,07,01,1.80
2010,03,23,07,02,1.70
2010,03,23,07,03,1.70
2010,03,23,07,04,1.70
2010,03,23,07,05,1.80
2010,03,23,07,06,1.80
2010,03,23,07,07,1.80
2010,03,23,07,08,1.80
2010,03,23,07,09,1.80
2010,03,23,07,10,1.90
2010,03,23,07,11,1.90
2010,03,23,07,12,1.90
2010,03,23,07,13,2.00
2010,03,23,07,14,2.00
2010,03,23,07,15,2.00
2010,03,23,07,16,2.10
2010,03,23,07,17,2.10
2010,03,23,07,18,2.10
2010,03,23,07,19,2.10
2010,03,23,07,20,2.00
2010,03,23,07,21,2.00
2010,03,23,07,22,2.00
2010,03,23,07,23,2.00
2010,03,23,07,24,2.10
2010,03,23,07,25,2.20
2010,03,23,07,26,2.20
2010,03,23,07,27,2.20
2010,03,23,07,28,2.20
2010,03,23,07,29,2.30
2010,03,23,07,30,2.30
2010,03,23,07,31,2.40
2010,03,23,07,32,2.50
2010,03,23,07,33,2.50
2010,03,23,07,34,2.60
2010,03,23,07,35,2.60
2010,03,23,07,36,2.70
2010,03,23,07,37,2.70
2010,03,23,07,38,2.70
2010,03,23,07,39,2.70
2010,03,23,07,40,2.70
2010,03,23,07,41,2.70
2010,03,23,07,42,2.70
2010,03,23,07,43,2.80
2010,03,23,07,44,2.80
2010,03,23,07,45,2.80
2010,03,23,07,46,2.80
2010,03,23,07,47,2.90
2010,03,23,07,48,2.90
2010,03,23,07,49,2.90
2010,03,23,07,50,2.90
2010,03,23,07,51,3.00
2010,03,23,07,52,3.10
2010,03,23,07,53,3.10
2010,03,23,07,54,3.10
2010,03,23,07,55,3.20
2010,03,23,07,56,3.20
2010,03,23,07,57,3.20
2010,03,23,07,58,3.30
2010,03,23,07,59,3.30
2010,03,23,08,00,3.30
2010,03,23,08,01,3.30
2010,03,23,08,02,3.40
2010,03,23,08,03,3.40
2010,03,23,08,04,3.50
2010,03,23,08,05,3.50
2010,03,23,08,06,3.50
2010,03,23,08,07,3.60
2010,03,23,08,08,3.60
2010,03,23,08,09,3.70
2010,03,23,08,10,3.80
2010,03,23,08,11,3.80
2010,03,23,08,12,3.80
2010,03,23,08,13,3.80
2010,03,23,08,14,3.90
2010,03,23,08,15,4.00
2010,03,23,08,16,4.00
2010,03,23,08,17,4.00
2010,03,23,08,18,4.10
2010,03,23,08,19,4.10
2010,03,23,08,20,4.20
2010,03,23,08,21,4.20
2010,03,23,08,22,4.20
2010,03,23,08,23,4.20
2010,03,23,08,24,4.20
2010,03,23,08,25,4.20
2010,03,23,08,26,4.20
2010,03,23,08,27,4.20
2010,03,23,08,28,4.30
2010,03,23,08,29,4.30
2010,03,23,08,30,4.40
2010,03,23,08,31,4.50
2010,03,23,08,32,4.50
2010,03,23,08,33,4.60
2010,03,23,08,34,4.60
2010,03,23,08,35,4.70
2010,03,23,08,36,4.80
2010,03,23,08,37,4.90
2010,03,23,08,38,5.00
2010,03,23,08,39,5.10
2010,03,23,08,40,5.10
2010,03,23,08,41,5.20
2010,03,23,08,42,5.30
2010,03,23,08,43,5.30
2010,03,23,08,44,5.30
2010,03,23,08,45,5.30
2010,03,23,08,46,5.30
2010,03,23,08,47,5.40
2010,03,23,08,48,5.40
2010,03,23,08,49,5.50
2010,03,23,08,50,5.50
2010,03,23,08,51,5.60
2010,03,23,08,52,5.70
2010,03,23,08,53,5.70
2010,03,23,08,54,5.70
2010,03,23,08,56,5.80
2010,03,23,08,57,5.90
2010,03,23,08,58,5.90
2010,03,23,08,59,6.00
2010,03,23,09,00,6.10
2010,03,23,09,01,6.20
2010,03,23,09,02,6.30
2010,03,23,09,03,6.40
2010,03,23,09,04,6.50
2010,03,23,09,05,6.60
2010,03,23,09,06,6.70
2010,03,23,09,07,6.80
2010,03,23,09,08,6.80
2010,03,23,09,09,7.00
2010,03,23,09,10,7.00
2010,03,23,09,11,7.00
2010,03,23,09,12,7.10
2010,03,23,09,13,7.20
2010,03,23,09,14,7.20
2010,03,23,09,15,7.30
2010,03,23,09,16,7.30
2010,03,23,09,17,7.30
2010,03,23,09,18,7.30
2010,03,23,09,19,7.40
2010,03,23,09,20,7.50
2010,03,23,09,21,7.60
2010,03,23,09,22,7.80
2010,03,23,09,23,7.80
2010,03,23,09,24,7.90
2010,03,23,09,25,7.90
2010,03,23,09,26,8.00
2010,03,23,09,27,8.10
2010,03,23,09,28,8.20
2010,03,23,09,29,8.30
2010,03,23,09,30,8.40
2010,03,23,09,31,8.50
2010,03,23,09,32,8.50
2010,03,23,09,33,8.60
2010,03,23,09,34,8.60
2010,03,23,09,35,8.70
2010,03,23,09,36,8.80
2010,03,23,09,37,8.90
2010,03,23,09,38,8.90
2010,03,23,09,39,9.00
2010,03,23,09,40,9.00
2010,03,23,09,41,9.00
2010,03,23,09,42,9.10
2010,03,23,09,43,9.10
2010,03,23,09,44,9.10
2010,03,23,09,45,9.20
2010,03,23,09,46,9.20
2010,03,23,09,47,9.20
2010,03,23,09,48,9.20
2010,03,23,09,49,9.30
2010,03,23,09,50,9.30
2010,03,23,09,51,9.30
2010,03,23,09,52,9.40
2010,03,23,09,53,9.50
2010,03,23,09,54,9.50
2010,03,23,09,55,9.60
2010,03,23,09,56,9.70
2010,03,23,09,57,9.70
2010,03,23,09,58,9.70
2010,03,23,09,59,9.70
2010,03,23,10,00,9.70
2010,03,23,10,01,9.70
2010,03,23,10,02,9.70
2010,03,23,10,03,9.70
2010,03,23,10,04,9.70
2010,03,23,10,05,9.70
2010,03,23,10,06,9.70
2010,03,23,10,07,9.70
2010,03,23,10,08,9.70
2010,03,23,10,09,9.80
2010,03,23,10,10,9.80
2010,03,23,10,11,9.80
2010,03,23,10,12,9.80
2010,03,23,10,13,9.90
2010,03,23,10,14,9.90
2010,03,23,10,15,9.90
2010,03,23,10,16,9.90
2010,03,23,10,17,10.00
2010,03,23,10,18,10.10
2010,03,23,10,19,10.20
2010,03,23,10,20,10.30
2010,03,23,10,21,10.40
2010,03,23,10,22,10.40
2010,03,23,10,23,10.50
2010,03,23,10,24,10.60
2010,03,23,10,25,10.80
2010,03,23,10,26,10.80
2010,03,23,10,27,10.90
2010,03,23,10,28,10.90
2010,03,23,10,29,10.90
2010,03,23,10,30,10.90
2010,03,23,10,31,10.90
2010,03,23,10,32,10.90
2010,03,23,10,33,10.90
2010,03,23,10,34,10.80
2010,03,23,10,35,10.80
2010,03,23,10,36,10.70
2010,03,23,10,37,10.60
2010,03,23,10,38,10.60
2010,03,23,10,39,10.60
2010,03,23,10,40,10.60
2010,03,23,10,41,10.60
2010,03,23,10,42,10.50
2010,03,23,10,43,10.40
2010,03,23,10,44,10.40
2010,03,23,10,45,10.50
2010,03,23,10,46,10.60
2010,03,23,10,47,10.60
2010,03,23,10,48,10.60
2010,03,23,10,49,10.70
2010,03,23,10,50,10.70
2010,03,23,10,51,10.70
2010,03,23,10,52,10.70
2010,03,23,10,53,10.80
2010,03,23,10,54,10.90
2010,03,23,10,55,10.90
2010,03,23,10,56,10.80
2010,03,23,10,57,10.70
2010,03,23,10,58,10.60
2010,03,23,10,59,10.60
2010,03,23,11,00,10.40
2010,03,23,11,01,10.40
2010,03,23,11,02,10.40
2010,03,23,11,03,10.40
2010,03,23,11,04,10.40
2010,03,23,11,05,10.40
2010,03,23,11,06,10.50
2010,03,23,11,07,10.60
2010,03,23,11,08,10.60
2010,03,23,11,09,10.70
2010,03,23,11,10,10.80
2010,03,23,11,11,10.80
2010,03,23,11,12,10.80
2010,03,23,11,13,10.80
2010,03,23,11,14,10.80
2010,03,23,11,15,10.80
2010,03,23,11,16,10.90
2010,03,23,11,17,10.90
2010,03,23,11,18,10.90
2010,03,23,11,19,10.90
2010,03,23,11,20,11.00
2010,03,23,11,21,11.10
2010,03,23,11,22,11.10
2010,03,23,11,23,11.10
2010,03,23,11,24,11.20
2010,03,23,11,25,11.20
2010,03,23,11,26,11.30
2010,03,23,11,27,11.40
2010,03,23,11,28,11.30
2010,03,23,11,29,11.10
2010,03,23,11,30,11.00
2010,03,23,11,31,10.90
2010,03,23,11,32,10.80
2010,03,23,11,33,10.90
2010,03,23,11,34,11.00
2010,03,23,11,35,11.10
2010,03,23,11,36,11.00
2010,03,23,11,37,10.90
2010,03,23,11,38,10.80
2010,03,23,11,39,10.80
2010,03,23,11,40,10.90
2010,03,23,11,41,10.90
2010,03,23,11,42,10.80
2010,03,23,11,43,10.80
2010,03,23,11,44,10.70
2010,03,23,11,45,10.60
2010,03,23,11,46,10.70
2010,03,23,11,47,10.80
2010,03,23,11,48,10.90
2010,03,23,11,49,11.00
2010,03,23,11,50,11.10
2010,03,23,11,51,11.10
2010,03,23,11,52,11.10
2010,03,23,11,53,11.10
2010,03,23,11,54,11.10
2010,03,23,11,55,11.10
2010,03,23,11,56,11.10
2010,03,23,11,57,11.10
2010,03,23,11,58,11.20
2010,03,23,11,59,11.30
2010,03,23,12,00,11.30
2010,03,23,12,01,11.40
2010,03,23,12,02,11.40
2010,03,23,12,03,11.40
2010,03,23,12,04,11.50
2010,03,23,12,05,11.70
2010,03,23,12,06,11.80
2010,03,23,12,07,12.00
2010,03,23,12,08,12.10
2010,03,23,12,09,12.00
2010,03,23,12,10,12.00
2010,03,23,12,11,11.90
2010,03,23,12,12,11.80
2010,03,23,12,13,11.80
2010,03,23,12,14,11.80
2010,03,23,12,15,11.70
2010,03,23,12,16,11.60
2010,03,23,12,17,11.60
2010,03,23,12,18,11.70
2010,03,23,12,19,11.80
2010,03,23,12,20,11.90
2010,03,23,12,21,12.00
2010,03,23,12,22,12.10
2010,03,23,12,23,12.20
2010,03,23,12,24,12.10
2010,03,23,12,25,12.20
2010,03,23,12,26,12.10
2010,03,23,12,27,12.10
2010,03,23,12,28,12.10
2010,03,23,12,29,12.10
2010,03,23,12,30,12.10
2010,03,23,12,31,12.10
2010,03,23,12,32,12.10
2010,03,23,12,33,12.10
2010,03,23,12,34,12.10
2010,03,23,12,35,12.00
2010,03,23,12,36,11.80
2010,03,23,12,37,11.80
2010,03,23,12,38,11.80
2010,03,23,12,39,11.80
2010,03,23,12,40,11.80
2010,03,23,12,41,11.80
2010,03,23,12,42,11.90
2010,03,23,12,43,11.90
2010,03,23,12,44,11.90
2010,03,23,12,45,11.80
2010,03,23,12,46,11.80
2010,03,23,12,47,11.70
2010,03,23,12,48,11.60
2010,03,23,12,49,11.50
2010,03,23,12,50,11.40
2010,03,23,12,51,11.40
2010,03,23,12,52,11.30
2010,03,23,12,53,11.30
2010,03,23,12,54,11.30
2010,03,23,12,55,11.40
2010,03,23,12,56,11.40
2010,03,23,12,57,11.40
2010,03,23,12,58,11.40
2010,03,23,12,59,11.40
2010,03,23,13,00,11.40
2010,03,23,13,01,11.40
2010,03,23,13,02,11.50
2010,03,23,13,03,11.60
2010,03,23,13,04,11.60
2010,03,23,13,05,11.60
2010,03,23,13,06,11.60
2010,03,23,13,07,11.60
2010,03,23,13,08,11.60
2010,03,23,13,09,11.50
2010,03,23,13,10,11.40
2010,03,23,13,11,11.30
2010,03,23,13,12,11.30
2010,03,23,13,13,11.30
2010,03,23,13,14,11.20
2010,03,23,13,15,11.20
2010,03,23,13,16,11.20
2010,03,23,13,17,11.20
2010,03,23,13,18,11.20
2010,03,23,13,19,11.30
2010,03,23,13,20,11.30
2010,03,23,13,21,11.20
2010,03,23,13,22,11.20
2010,03,23,13,23,11.10
2010,03,23,13,24,10.90
2010,03,23,13,25,11.00
2010,03,23,13,26,11.10
2010,03,23,13,27,11.10
2010,03,23,13,28,11.10
2010,03,23,13,29,11.10
2010,03,23,13,30,11.10
2010,03,23,13,31,11.20
2010,03,23,13,32,11.20
2010,03,23,13,33,11.30
2010,03,23,13,34,11.50
2010,03,23,13,35,11.60
2010,03,23,13,36,11.60
2010,03,23,13,37,11.60
2010,03,23,13,38,11.60
2010,03,23,13,39,11.60
2010,03,23,13,40,11.50
2010,03,23,13,41,11.40
2010,03,23,13,42,11.40
2010,03,23,13,43,11.30
2010,03,23,13,44,11.30
2010,03,23,13,45,11.30
2010,03,23,13,46,11.30
2010,03,23,13,47,11.20
2010,03,23,13,48,11.10
2010,03,23,13,49,11.10
2010,03,23,13,50,11.10
2010,03,23,13,51,11.00
2010,03,23,13,52,10.90
2010,03,23,13,53,10.90
2010,03,23,13,54,11.10
2010,03,23,13,55,11.00
2010,03,23,13,56,10.90
2010,03,23,13,57,10.90
2010,03,23,13,58,10.80
2010,03,23,13,59,10.90
2010,03,23,14,00,10.90
2010,03,23,14,01,10.90
2010,03,23,14,02,10.90
2010,03,23,14,03,10.90
2010,03,23,14,04,10.90
2010,03,23,14,05,11.00
2010,03,23,14,06,11.10
2010,03,23,14,07,11.10
2010,03,23,14,08,11.20
2010,03,23,14,09,11.20
2010,03,23,14,10,11.20
2010,03,23,14,11,11.10
2010,03,23,14,12,10.90
2010,03,23,14,13,10.90
2010,03,23,14,14,10.90
2010,03,23,14,15,11.10
2010,03,23,14,16,11.10
2010,03,23,14,17,11.10
2010,03,23,14,18,11.10
2010,03,23,14,19,11.20
2010,03,23,14,20,11.20
2010,03,23,14,21,11.20
2010,03,23,14,22,11.10
2010,03,23,14,23,11.10
2010,03,23,14,24,11.10
2010,03,23,14,25,11.00
2010,03,23,14,26,11.10
2010,03,23,14,27,11.10
2010,03,23,14,28,11.10
2010,03,23,14,29,11.10
2010,03,23,14,30,11.10
2010,03,23,14,31,11.10
2010,03,23,14,32,11.10
2010,03,23,14,33,11.10
2010,03,23,14,34,11.10
2010,03,23,14,35,11.10
2010,03,23,14,36,11.10
2010,03,23,14,37,11.10
2010,03,23,14,38,11.10
2010,03,23,14,39,11.20
2010,03,23,14,40,11.20
2010,03,23,14,41,11.20
2010,03,23,14,42,11.30
2010,03,23,14,43,11.30
2010,03,23,14,44,11.40
2010,03,23,14,45,11.40
2010,03,23,14,46,11.50
2010,03,23,14,47,11.60
2010,03,23,14,48,11.70
2010,03,23,14,49,11.70
2010,03,23,14,50,11.70
2010,03,23,14,51,11.80
2010,03,23,14,52,11.80
2010,03,23,14,53,11.80
2010,03,23,14,54,11.80
2010,03,23,14,55,11.80
2010,03,23,14,56,11.80
2010,03,23,14,57,11.80
2010,03,23,14,58,11.90
2010,03,23,14,59,11.80
2010,03,23,15,00,11.80
2010,03,23,15,01,11.90
2010,03,23,15,02,11.90
2010,03,23,15,03,12.00
2010,03,23,15,04,12.00
2010,03,23,15,05,12.00
2010,03,23,15,06,12.00
2010,03,23,15,07,12.10
2010,03,23,15,08,12.10
2010,03,23,15,09,12.10
2010,03,23,15,10,12.10
2010,03,23,15,11,12.10
2010,03,23,15,12,12.20
2010,03,23,15,13,12.20
2010,03,23,15,14,12.20
2010,03,23,15,15,12.20
2010,03,23,15,16,12.20
2010,03,23,15,17,12.10
2010,03,23,15,18,12.10
2010,03,23,15,19,12.10
2010,03,23,15,20,12.20
2010,03,23,15,21,12.20
2010,03,23,15,22,12.10
2010,03,23,15,23,12.10
2010,03,23,15,24,12.00
2010,03,23,15,25,12.00
2010,03,23,15,26,12.00
2010,03,23,15,27,12.10
2010,03,23,15,28,12.10
2010,03,23,15,29,12.10
2010,03,23,15,30,12.20
2010,03,23,15,31,12.30
2010,03,23,15,32,12.40
2010,03,23,15,33,12.50
2010,03,23,15,34,12.60
2010,03,23,15,35,12.70
2010,03,23,15,36,12.60
2010,03,23,15,37,12.70
2010,03,23,15,38,12.70
2010,03,23,15,39,12.80
2010,03,23,15,40,12.80
2010,03,23,15,41,12.90
2010,03,23,15,42,13.00
2010,03,23,15,43,13.10
2010,03,23,15,44,13.20
2010,03,23,15,45,13.20
2010,03,23,15,46,13.20
2010,03,23,15,47,13.20
2010,03,23,15,48,13.20
2010,03,23,15,49,13.10
2010,03,23,15,50,13.00
2010,03,23,15,51,13.00
2010,03,23,15,52,13.00
2010,03,23,15,53,13.00
2010,03,23,15,54,13.00
2010,03,23,15,55,12.80
2010,03,23,15,56,12.80
2010,03,23,15,57,12.70
2010,03,23,15,58,12.60
2010,03,23,15,59,12.50
2010,03,23,16,00,12.40
2010,03,23,16,01,12.40
2010,03,23,16,02,12.40
2010,03,23,16,03,12.50
2010,03,23,16,04,12.50
2010,03,23,16,05,12.50
2010,03,23,16,06,12.40
2010,03,23,16,07,12.40
2010,03,23,16,08,12.30
2010,03,23,16,09,12.10
2010,03,23,16,10,12.00
2010,03,23,16,11,12.00
2010,03,23,16,12,12.10
2010,03,23,16,13,12.10
2010,03,23,16,14,12.20
2010,03,23,16,15,12.30
2010,03,23,16,16,12.30
2010,03,23,16,17,12.30
2010,03,23,16,18,12.30
2010,03,23,16,19,12.30
2010,03,23,16,20,12.30
2010,03,23,16,21,12.30
2010,03,23,16,22,12.30
2010,03,23,16,23,12.30
2010,03,23,16,24,12.20
2010,03,23,16,25,12.20
2010,03,23,16,26,12.30
2010,03,23,16,27,12.30
2010,03,23,16,28,12.30
2010,03,23,16,29,12.30
2010,03,23,16,30,12.40
2010,03,23,16,31,12.40
2010,03,23,16,32,12.40
2010,03,23,16,33,12.40
2010,03,23,16,34,12.40
2010,03,23,16,35,12.50
2010,03,23,16,36,12.50
2010,03,23,16,37,12.50
2010,03,23,16,38,12.60
2010,03,23,16,39,12.60
2010,03,23,16,40,12.60
2010,03,23,16,41,12.60
2010,03,23,16,42,12.60
2010,03,23,16,43,12.60
2010,03,23,16,44,12.60
2010,03,23,16,45,12.60
2010,03,23,16,46,12.70
2010,03,23,16,47,12.70
2010,03,23,16,48,12.70
2010,03,23,16,49,12.70
2010,03,23,16,50,12.70
2010,03,23,16,51,12.80
2010,03,23,16,52,12.80
2010,03,23,16,53,12.80
2010,03,23,16,54,12.70
2010,03,23,16,55,12.70
2010,03,23,16,56,12.70
2010,03,23,16,57,12.70
2010,03,23,16,58,12.70
2010,03,23,16,59,12.60
2010,03,23,17,00,12.60
2010,03,23,17,01,12.60
2010,03,23,17,02,12.70
2010,03,23,17,03,12.70
2010,03,23,17,04,12.70
2010,03,23,17,05,12.70
2010,03,23,17,06,12.60
2010,03,23,17,07,12.50
2010,03,23,17,08,12.50
2010,03,23,17,09,12.40
2010,03,23,17,10,12.30
2010,03,23,17,11,12.30
2010,03,23,17,12,12.30
2010,03,23,17,13,12.30
2010,03,23,17,14,12.30
2010,03,23,17,15,12.20
2010,03,23,17,16,12.20
2010,03,23,17,17,12.20
2010,03,23,17,18,12.20
2010,03,23,17,19,12.20
2010,03,23,17,20,12.20
2010,03,23,17,21,12.20
2010,03,23,17,22,12.20
2010,03,23,17,23,12.20
2010,03,23,17,24,12.20
2010,03,23,17,25,12.10
2010,03,23,17,26,12.00
2010,03,23,17,27,12.00
2010,03,23,17,28,11.90
2010,03,23,17,29,11.90
2010,03,23,17,30,11.80
2010,03,23,17,31,11.80
2010,03,23,17,32,11.80
2010,03,23,17,33,11.90
2010,03,23,17,34,11.90
2010,03,23,17,35,12.00
2010,03,23,17,36,12.00
2010,03,23,17,37,12.00
2010,03,23,17,38,12.00
2010,03,23,17,39,12.00
2010,03,23,17,40,12.10
2010,03,23,17,41,12.10
2010,03,23,17,42,12.10
2010,03,23,17,43,12.10
2010,03,23,17,44,12.10
2010,03,23,17,45,12.10
2010,03,23,17,46,12.10
2010,03,23,17,47,12.00